Preview of NWS' New Version of Forecast
This preview is not operational and should not be used for support decisions.

Regional Weather Roundup (RWR)

Issued by National Weather Service (NWS)

                            
000
ASUS42 KTBW 191118
RWRFL 
FLORIDA REGIONAL WEATHER ROUNDUP
NATIONAL WEATHER SERVICE TAMPA BAY RUSKIN FL
700 AM EDT MON AUG 19 2019

NOTE: "FAIR" INDICATES FEW OR NO CLOUDS BELOW 12,000 FEET WITH NO
SIGNIFICANT WEATHER AND/OR OBSTRUCTIONS TO VISIBILITY.

FLZ001>010-012>015-112-114-115-191200-
PANHANDLE FLORIDA
  
CITY           SKY/WX    TMP DP  RH WIND       PRES   REMARKS
PENSACOLA      FAIR      79  79 100 CALM      30.03R                  
PENSACOLA NAS  TSTM      77  77 100 SW3       30.03R                  
MILTON NAS     MOCLDY    75  75 100 N3        30.02S                  
CRESTVIEW      FAIR      77  74  90 N3        30.03R                  
DUKE FIELD     FAIR      77  76  98 W3        30.02R                  
VALPARAISO     FAIR      77  76  97 CALM      30.01R                  
MARY ESTHER    PTCLDY    78  75  91 CALM      30.00R                  
TRI COUNTY     FAIR      75  73  93 CALM      30.04R                  
PANAMA CITY    LGT RAIN  76  74  93 NE3       30.01S                  
TYNDALL AFB    TSTM      76  73  90 W3G20     30.03R VSB 3/4          
APALACHICOLA   FAIR      80  75  84 SW9       30.04R                  

STATION/POSITION SKY/WX   TEMP    WIND        PRES    WAVE   SWELL
                          AIR SEA DIR/SP/G            HT/PER HT/PER
                          (F)     (DEG/KT/KT) (MB)    (FT/S) (FT/S)
30.1N   87.6W              77 87  330/  6/ 10 1017.1R   4/ 7   3/ 7
29.2N   88.2W              81 85  270/ 16/ 19 1016.9R   4/ 7   2/ 7
28.8N   86.0W                 85  220/ 10/ 12 1017.3R   4/ 6   3/ 6
PANAMA CITY BEAC           83 86  280/ 19/ 21 1016.7R
TOWER C                    81     260/ 13/ 15 1017.7R
28.5N   84.5W              83     210/  6/  8 1018.5R   3/ 5   3/ 5

$$
FLZ011-016>038-118-127-128-134-139-239-191200-
NORTH FLORIDA
  
CITY           SKY/WX    TMP DP  RH WIND       PRES   REMARKS
MARIANNA       MOCLDY    75  75 100 CALM      30.02R                  
TALLAHASSEE    MOCLDY    76  76 100 CALM      30.04R                  
PERRY          RAIN      75  74  97 SW7       30.07R                  
LIVE OAK       CLOUDY    73  73 100 SW6       30.07R THUNDER          
CROSS CITY     FAIR      75  74  98 CALM      30.06S                  
LAKE CITY      LGT RAIN  72  72 100 S6        30.07S                  
GAINESVILLE    FAIR      73  71  93 CALM      30.11R                  
WILLISTON      FAIR      73  73  99 CALM      30.08R                  
MAYPORT NAS    MOCLDY    75  72  90 SW7       30.07R                  
JACKSONVILLE   MOCLDY    75  72  90 S5        30.07R                  
JAX NAS        MOCLDY    76  71  85 SW5       30.08R                  
JAX CECIL      FAIR      73  72  94 CALM      30.08R                  
FERNANDINA BEA FAIR      75  73  95 SW6       30.07S                  
ST AUGUSTINE   FAIR      74  72  93 SW6       30.09R                  
PALM COAST     CLEAR     72  70  94 CALM      30.07S                  

STATION/POSITION SKY/WX   TEMP    WIND        PRES    WAVE   SWELL
                          AIR SEA DIR/SP/G            HT/PER HT/PER
                          (F)     (DEG/KT/KT) (MB)    (FT/S) (FT/S)
SHELL POINT      NOT AVBL
KEATON BEACH               81     230/ 12/ 15 1017.7R
CEDAR KEY                  77     160/  8/  9 1018.4R
FERNANDINA                 80 82              1019.0R
30.7N   81.3W                 81                N/A     2/ 8
MAYPORT                    75 83  200/  4/  6 1018.6R
31.4N   80.9W              80 82  230/ 12/ 14 1018.0R   2/ 4   2/ 8
ST AUGUSTINE               75 80  230/  5/  6 1018.5R

$$
FLZ040-043>046-052-053-057-058-063-144-191200-
INTERIOR CENTRAL FLORIDA
  
CITY           SKY/WX    TMP DP  RH WIND       PRES   REMARKS
OCALA          FAIR      73  72  96 CALM      30.09R                  
LEESBURG       FAIR      74  72  93 CALM      30.08R                  
SANFORD        FAIR      76  73  91 E3        30.07S                  
ORLANDO EXEC   FAIR      78  72  81 CALM      30.08R                  
ORLANDO INTL   MOCLDY    76  73  91 N5        30.08R                  
KISSIMMEE      FAIR      78  75  90 CALM      30.09R                  
WINTER HAVEN   FAIR      78  74  87 N5        30.09R                  
LAKELAND       CLEAR     75  73  94 CALM      30.08R                  
BARTOW         FAIR      77  75  94 NE3       30.06S                  
SEBRING        FAIR      76  73  92 E3        30.07S                  
OKEECHOBEE     FAIR      73  72  94 N3        30.06R                  

$$
FLZ041-047-054-059-064-141-147-191200-
EAST CENTRAL FLORIDA
  
CITY           SKY/WX    TMP DP  RH WIND       PRES   REMARKS
ORMOND BEACH   CLEAR     72  72 100 CALM      30.08                   
DAYTONA BEACH  MOCLDY    74  74 100 CALM      30.08R                  
DELAND         FAIR      72  70  94 CALM      30.07S                  
NEW SMYRNA BEA CLEAR     73  72  94 CALM      30.09                   
JFK SPACE CTR    N/A    N/A N/A N/A N3          N/A                   
TITUSVILLE     CLEAR     79  75  89 S5        30.08                   
CAPE CANAVERAL FAIR      75  74  99 CALM      30.06R                  
PATRICK AFB    FAIR      78  78 100 NE6       30.07R                  
MELBOURNE      FAIR      80  75  84 NE3       30.07R                  
VERO BEACH     FAIR      75  74  96 CALM      30.07R                  
FT PIERCE      FAIR      77  74  90 CALM      30.07R                  
STUART         PTCLDY    81  73  78 CALM      30.07S                  

STATION/POSITION SKY/WX   TEMP    WIND        PRES    WAVE   SWELL
                          AIR SEA DIR/SP/G            HT/PER HT/PER
                          (F)     (DEG/KT/KT) (MB)    (FT/S) (FT/S)
28.5N   80.2W              80 84   40/  6/ 10 1018.3R   1/ 9   2/ 9
28.9N   78.5W              84 86  130/  6/  8 1019.2R   2/ 8   2/ 8
TRIDENT PIER               76 80   30/  2/  3 1019.5S
28.4N   80.5W                 79                N/A     1/ 8
27.5N   80.2W                 84                N/A     1/ 8

$$
FLZ050-056-061-142-242-148-248-149-249-151-251-155-255-
160-260-191200-
WEST CENTRAL FLORIDA
  
CITY           SKY/WX    TMP DP  RH WIND       PRES   REMARKS
CRYSTAL RIVER  FAIR      72  72 100 CALM      30.09R                  
INVERNESS      FAIR      72  72 100 CALM      30.09R FOG              
BROOKSVILLE    FAIR      73  71  93 CALM      30.08S                  
CLEARWATER AIR FAIR      73  72  94 CALM      30.06S                  
ST PETE CLEARW FAIR      79  74  84 E5        30.06R                  
TAMPA INTL     MOCLDY    77  72  84 CALM      30.07R                  
PLANT CITY     FAIR      77  75  94 CALM      30.09S                  
MACDILL AFB    FAIR      75  73  91 E3        30.06R                  
PETER O KNIGHT CLOUDY   N/A N/A N/A NE6       30.07S                  
ST PETERSBURG  FAIR      80  76  87 NE10      30.05R                  
SARASOTA       FAIR      77  74  90 E6        30.04R                  
VENICE         MOCLDY    77  73  88 NE7       30.06S                  

STATION/POSITION SKY/WX   TEMP    WIND        PRES    WAVE   SWELL
                          AIR SEA DIR/SP/G            HT/PER HT/PER
                          (F)     (DEG/KT/KT) (MB)    (FT/S) (FT/S)
27.3N   84.2W                 85                N/A     3/ 8
CLEARWATER BEACH                   70/  5/  7   N/A
MIDDLE TAMPA BAY           78      90/ 11/ 12 1018.2R
VENICE                     77 85   60/  5/  7 1017.8R

$$
FLZ066-069-070-075>078-162-262-165-265-191200-
SOUTHWEST FLORIDA AND KEYS
  
CITY           SKY/WX    TMP DP  RH WIND       PRES   REMARKS
PUNTA GORDA    FAIR      75  74  96 E6        30.07R                  
FT MYERS       FAIR      76  73  91 NE3       30.05R                  
SOUTHWEST INTL FAIR      76  73  91 NE5       30.05R                  
IMMOKALEE      FAIR      75  73  94 NE3       30.03S                  
MARATHON       FAIR      86  73  65 E10       30.01R                  
KEY WEST NAS   FAIR      86  74  67 E8        30.00S                  
KEY WEST INTL  FAIR      85  74  69 NE8       30.01R                  

STATION/POSITION SKY/WX   TEMP    WIND        PRES    WAVE   SWELL
                          AIR SEA DIR/SP/G            HT/PER HT/PER
                          (F)     (DEG/KT/KT) (MB)    (FT/S) (FT/S)
NAPLES                     78 86              1017.3R
26.0N   85.6W              85 85  100/ 10/ 12 1017.0R   2/ 7   2/ 7
DRY TORTUGAS               86      90/ 14/ 16 1016.4R
SAND KEY                   86      80/ 14/ 18 1014.8R
SOMBRERO KEY               86      70/ 15/ 18 1016.2R
LONG KEY                   86                 1015.3R

$$
FLZ067-068-071>074-168-172>174-191200-
SOUTHEAST FLORIDA 
  
CITY           SKY/WX    TMP DP  RH WIND       PRES   REMARKS
W PALM BEACH   FAIR      77  74  90 NW5       30.05S                  
BOCA RATON     PTCLDY    79  77  94 N3        30.04                   
FT LAUDER-EXEC FAIR      80  75  84 NW3       30.04R                  
FT LAUDERDALE  FAIR      83  75  77 E9        30.03R                  
POMPANO BEACH  FAIR      85  73  67 E6        30.03S                  
PEMBROKE PINES FAIR      80  74  81 CALM      30.05R                  
OPA LOCKA      FAIR      79  74  84 N3        30.04R                  
MIAMI          FAIR      80  73  79 CALM      30.03S                  
WEST KENDALL   FAIR      77  72  84 CALM      30.03S                  
HOMESTEAD      FAIR      82  73  73 E8        30.02S                  

STATION/POSITION SKY/WX   TEMP    WIND        PRES    WAVE   SWELL
                          AIR SEA DIR/SP/G            HT/PER HT/PER
                          (F)     (DEG/KT/KT) (MB)    (FT/S) (FT/S)
PORT EVERGLADES            85      80/  7/ 10 1016.9S
VIRGINIA KEY               86 90   70/ 12/ 14 1016.4
LAKE WORTH                        100/  7/  8   N/A
FOWEY ROCKS                85 86   90/ 21/ 26 1017.1R
SETTLEMENT POINT           84      90/ 10/ 12 1018.0R

$$